TimeCST,TemperatureF,Dew PointF,Humidity,Sea Level PressureIn,VisibilityMPH,Wind Direction,Wind SpeedMPH,Gust SpeedMPH,PrecipitationIn,Events,Conditions,WindDirDegrees,DateUTC
12:15 AM,17.6,12.2,79,29.95,4.0,WSW,5.8,-,N/A,Snow,Light Snow,250,2012-12-12 06:15:00
12:35 AM,14.0,10.4,86,29.95,7.0,SW,6.9,-,N/A,Snow,Light Snow,230,2012-12-12 06:35:00
12:55 AM,14.0,10.4,86,29.95,10.0,West,5.8,-,N/A,Snow,Light Snow,260,2012-12-12 06:55:00
1:15 AM,14.0,10.4,86,29.96,5.0,WSW,6.9,-,N/A,Snow,Light Snow,240,2012-12-12 07:15:00
1:35 AM,14.0,8.6,79,29.97,10.0,West,4.6,-,N/A,Snow,Light Snow,270,2012-12-12 07:35:00
1:55 AM,14.0,8.6,79,29.98,3.0,WSW,4.6,-,N/A,Snow,Light Snow,240,2012-12-12 07:55:00
2:15 AM,14.0,8.6,79,29.98,4.0,SW,4.6,-,N/A,Snow,Light Snow,220,2012-12-12 08:15:00
2:35 AM,12.2,8.6,85,29.99,10.0,WSW,4.6,-,N/A,Snow,Light Snow,250,2012-12-12 08:35:00
2:55 AM,12.2,8.6,85,30.00,7.0,SSW,5.8,-,N/A,Snow,Light Snow,210,2012-12-12 08:55:00
3:15 AM,12.2,8.6,85,30.00,10.0,SSW,3.5,-,N/A,,Overcast,210,2012-12-12 09:15:00
3:35 AM,12.2,8.6,85,30.00,10.0,SSW,3.5,-,N/A,Snow,Light Snow,210,2012-12-12 09:35:00
3:55 AM,12.2,8.6,85,30.00,10.0,SSW,4.6,-,N/A,,Overcast,210,2012-12-12 09:55:00
4:15 AM,12.2,8.6,85,30.00,10.0,SSW,3.5,-,N/A,Snow,Light Snow,200,2012-12-12 10:15:00
4:35 AM,12.2,8.6,85,29.99,10.0,Calm,Calm,-,N/A,Snow,Light Snow,0,2012-12-12 10:35:00
4:55 AM,12.2,8.6,85,30.00,10.0,South,3.5,-,N/A,,Clear,170,2012-12-12 10:55:00
5:15 AM,12.2,8.6,85,30.00,10.0,Calm,Calm,-,N/A,Snow,Light Snow,0,2012-12-12 11:15:00
5:35 AM,12.2,8.6,85,30.01,10.0,Calm,Calm,-,N/A,,Clear,0,2012-12-12 11:35:00
6:15 AM,12.2,8.6,85,30.01,10.0,Calm,Calm,-,N/A,,Clear,0,2012-12-12 12:15:00
6:35 AM,12.2,8.6,85,30.02,10.0,Calm,Calm,-,N/A,,Scattered Clouds,0,2012-12-12 12:35:00
6:55 AM,12.2,8.6,85,30.03,10.0,Calm,Calm,-,N/A,,Mostly Cloudy,0,2012-12-12 12:55:00
7:15 AM,14.0,10.4,86,30.03,10.0,SSE,3.5,-,N/A,,Scattered Clouds,160,2012-12-12 13:15:00
7:35 AM,14.0,12.2,93,30.03,10.0,SSE,5.8,-,N/A,,Mostly Cloudy,160,2012-12-12 13:35:00
7:55 AM,14.0,12.2,93,30.03,10.0,SSE,3.5,-,N/A,,Mostly Cloudy,150,2012-12-12 13:55:00
8:15 AM,14.0,12.2,93,30.03,10.0,SSE,3.5,-,N/A,,Mostly Cloudy,150,2012-12-12 14:15:00
8:35 AM,17.6,14.0,86,30.03,10.0,SSE,5.8,-,N/A,,Mostly Cloudy,160,2012-12-12 14:35:00
8:55 AM,17.6,14.0,86,30.02,10.0,SSE,4.6,-,N/A,,Scattered Clouds,160,2012-12-12 14:55:00
9:15 AM,17.6,14.0,86,30.03,10.0,SSE,6.9,-,N/A,,Clear,160,2012-12-12 15:15:00
9:35 AM,17.6,14.0,86,30.03,10.0,SSE,6.9,-,N/A,,Clear,150,2012-12-12 15:35:00
9:55 AM,19.4,15.8,86,30.04,10.0,SSE,5.8,-,N/A,,Scattered Clouds,150,2012-12-12 15:55:00
10:15 AM,19.4,14.0,80,30.03,10.0,SSE,6.9,-,N/A,,Scattered Clouds,150,2012-12-12 16:15:00
10:35 AM,23.0,17.6,80,30.03,10.0,SSE,10.4,-,N/A,,Scattered Clouds,150,2012-12-12 16:35:00
10:55 AM,23.0,17.6,80,30.01,10.0,SSE,11.5,-,N/A,,Scattered Clouds,150,2012-12-12 16:55:00
11:15 AM,24.8,17.6,74,30.00,10.0,SSE,9.2,-,N/A,,Scattered Clouds,160,2012-12-12 17:15:00
11:35 AM,26.6,19.4,74,29.98,10.0,SSE,11.5,-,N/A,,Mostly Cloudy,160,2012-12-12 17:35:00
11:55 AM,28.4,19.4,69,29.98,10.0,SSE,10.4,16.1,N/A,,Mostly Cloudy,150,2012-12-12 17:55:00
12:15 PM,30.2,21.2,69,29.96,10.0,SSE,11.5,-,N/A,,Scattered Clouds,160,2012-12-12 18:15:00
12:35 PM,32.0,23.0,69,29.95,10.0,South,12.7,16.1,N/A,,Clear,170,2012-12-12 18:35:00
12:55 PM,32.0,21.2,64,29.94,10.0,South,12.7,16.1,N/A,,Scattered Clouds,170,2012-12-12 18:55:00
1:15 PM,32.0,23.0,69,29.93,10.0,South,11.5,18.4,N/A,,Clear,170,2012-12-12 19:15:00
1:55 PM,32.0,23.0,69,29.92,10.0,South,13.8,-,N/A,,Overcast,170,2012-12-12 19:55:00
2:15 PM,32.0,23.0,69,29.91,10.0,South,13.8,20.7,N/A,,Overcast,180,2012-12-12 20:15:00
2:35 PM,32.0,23.0,69,29.91,10.0,South,12.7,19.6,N/A,,Overcast,180,2012-12-12 20:35:00
2:55 PM,32.0,23.0,69,29.91,10.0,South,17.3,25.3,N/A,,Mostly Cloudy,180,2012-12-12 20:55:00
3:15 PM,32.0,23.0,69,29.90,10.0,South,17.3,25.3,N/A,,Mostly Cloudy,190,2012-12-12 21:15:00
3:35 PM,33.8,24.8,70,29.89,10.0,South,17.3,25.3,N/A,,Overcast,170,2012-12-12 21:35:00
3:55 PM,33.8,24.8,70,29.89,10.0,South,16.1,21.9,N/A,,Overcast,180,2012-12-12 21:55:00
4:15 PM,33.8,24.8,70,29.88,10.0,South,16.1,24.2,N/A,,Overcast,170,2012-12-12 22:15:00
4:35 PM,33.8,26.6,75,29.89,10.0,South,17.3,24.2,N/A,,Scattered Clouds,190,2012-12-12 22:35:00
4:55 PM,35.6,26.6,70,29.91,10.0,SSW,12.7,19.6,N/A,,Scattered Clouds,200,2012-12-12 22:55:00
5:15 PM,33.8,26.6,75,29.91,10.0,SSW,12.7,-,N/A,,Scattered Clouds,200,2012-12-12 23:15:00
5:35 PM,33.8,26.6,75,29.92,10.0,SSW,10.4,19.6,N/A,,Clear,200,2012-12-12 23:35:00
5:55 PM,33.8,26.6,75,29.92,10.0,SSW,9.2,-,N/A,,Clear,200,2012-12-12 23:55:00
6:55 PM,33.8,26.6,75,29.92,10.0,South,10.4,16.1,N/A,,Clear,190,2012-12-13 00:55:00
7:15 PM,33.8,26.6,75,29.92,10.0,South,11.5,-,N/A,,Clear,190,2012-12-13 01:15:00
7:35 PM,35.6,28.4,75,29.92,10.0,South,9.2,16.1,N/A,,Scattered Clouds,190,2012-12-13 01:35:00
7:55 PM,35.6,28.4,75,29.93,10.0,South,10.4,-,N/A,,Mostly Cloudy,190,2012-12-13 01:55:00
8:15 PM,35.6,28.4,75,29.93,10.0,SSW,10.4,-,N/A,,Overcast,200,2012-12-13 02:15:00
8:35 PM,35.6,28.4,75,29.93,10.0,SSW,11.5,16.1,N/A,,Overcast,200,2012-12-13 02:35:00
8:55 PM,35.6,28.4,75,29.93,10.0,SSW,12.7,-,N/A,,Overcast,200,2012-12-13 02:55:00
9:15 PM,35.6,28.4,75,29.93,10.0,SSW,13.8,-,N/A,,Overcast,200,2012-12-13 03:15:00
9:35 PM,35.6,28.4,75,29.93,10.0,SSW,9.2,17.3,N/A,,Overcast,210,2012-12-13 03:35:00
9:55 PM,35.6,28.4,75,29.93,10.0,SSW,12.7,20.7,N/A,,Overcast,210,2012-12-13 03:55:00
10:15 PM,35.6,28.4,75,29.94,10.0,SSW,11.5,-,N/A,,Mostly Cloudy,210,2012-12-13 04:15:00
10:35 PM,35.6,28.4,75,29.94,10.0,SSW,11.5,-,N/A,,Overcast,210,2012-12-13 04:35:00
10:55 PM,35.6,26.6,70,29.95,10.0,SSW,12.7,17.3,N/A,,Overcast,210,2012-12-13 04:55:00
11:15 PM,35.6,26.6,70,29.95,10.0,SSW,9.2,18.4,N/A,,Overcast,210,2012-12-13 05:15:00
11:35 PM,35.6,26.6,70,29.95,10.0,SSW,12.7,17.3,N/A,,Overcast,210,2012-12-13 05:35:00
11:55 PM,35.6,26.6,70,29.95,10.0,SSW,8.1,-,N/A,,Overcast,200,2012-12-13 05:55:00